Location: Portland
(45.5240°N, 122.6750°W)
Time: 02:37:31
(UTC-07:00)

ISS - Visible Passes

Search period start: 26 March 2023 00:00
Search period end: 05 April 2023 00:00
Orbit: 414 x 422 km, 51.6° (Epoch: 26 March)

Date Brightness Start Highest point End Pass type
(mag) Time Alt. Az. Time Alt. Az. Time Alt. Az.
26 Mar -2.2 20:01:36 10° WNW 20:04:32 27° N 20:07:28 10° ENE visible
26 Mar -2.8 21:38:29 10° NW 21:41:10 44° NNW 21:41:10 44° NNW visible
27 Mar -2.9 20:50:28 10° NW 20:53:39 39° NNE 20:55:03 25° ENE visible
27 Mar -0.8 22:27:15 10° WNW 22:27:59 15° WNW 22:27:59 15° WNW visible
28 Mar -2.5 20:02:21 10° NW 20:05:26 32° NNE 20:08:30 10° ENE visible
28 Mar -3.2 21:39:05 10° WNW 21:41:51 56° W 21:41:51 56° W visible
29 Mar -3.8 20:50:56 10° WNW 20:54:17 72° NNE 20:55:42 31° ESE visible
29 Mar -0.6 22:28:17 10° W 22:28:38 12° W 22:28:38 12° W visible
30 Mar -3.3 20:02:46 10° NW 20:06:02 50° NNE 20:09:19 10° E visible
30 Mar -2.3 21:39:42 10° WNW 21:42:29 30° SW 21:42:29 30° SW visible
31 Mar -3.1 20:51:18 10° WNW 20:54:33 49° SW 20:56:21 23° SSE visible
01 Apr -3.7 20:02:56 10° WNW 20:06:18 79° SSW 20:09:38 10° SE visible
01 Apr -1.1 21:41:04 10° WSW 21:42:33 12° SW 21:43:10 12° SW visible
02 Apr -1.6 20:51:52 10° W 20:54:25 20° SW 20:56:56 10° S visible
